This is the latest recevied weather packets stored in our database for station/object KQ4UWH. If no packets are shown the sender has not sent any weather packets the latest 10 day(s).
| Time | Temp. | Humidity | Pressure | Rain* | Wind** | Luminosity | Snow |
|---|---|---|---|---|---|---|---|
| 1777822069 | 16.67° C | 48% | 1239.7 hPa | 0 mm | - | 648 W/m² | - |
| 1777821768 | 16.11° C | 47% | 1239.7 hPa | 0 mm | - | 638 W/m² | - |
| 1777821464 | 15.56° C | 47% | 1239.7 hPa | 0 mm | - | 629 W/m² | - |
| 1777821162 | 15° C | 48% | 1239.7 hPa | 0 mm | - | 615 W/m² | - |
| 1777820858 | 15° C | 55% | 1239.7 hPa | 0 mm | - | 274 W/m² | - |
| 1777820554 | 15° C | 56% | 1239.7 hPa | 0 mm | - | 55 W/m² | - |
| 1777820251 | 14.44° C | 58% | 1239.7 hPa | 0 mm | - | 157 W/m² | - |
| 1777819949 | 14.44° C | 58% | 1239.7 hPa | 0 mm | - | 149 W/m² | - |
| 1777819646 | 13.89° C | 62% | 1239.7 hPa | 0 mm | - | 73 W/m² | - |
| 1777819344 | 13.89° C | 60% | 1239.7 hPa | 0 mm | - | 52 W/m² | - |
| 1777819040 | 13.89° C | 60% | 1239.7 hPa | 0 mm | - | 90 W/m² | - |
| 1777818738 | 13.33° C | 62% | 1239.7 hPa | 0 mm | - | 69 W/m² | - |
| 1777818434 | 13.33° C | 62% | 1239.7 hPa | 0 mm | - | 40 W/m² | - |
| 1777818131 | 12.78° C | 69% | 1239.7 hPa | 0 mm | - | 37 W/m² | - |
| 1777817828 | 12.78° C | 66% | 1239.7 hPa | 0 mm | - | 102 W/m² | - |
| 1777817525 | 12.22° C | 68% | 1239.7 hPa | 0 mm | - | 142 W/m² | - |
| 1777817221 | 12.22° C | 69% | 1239.7 hPa | 0 mm | - | 46 W/m² | - |
| 1777816919 | 12.22° C | 69% | 1239.7 hPa | 0 mm | - | 52 W/m² | - |
| 1777816615 | 11.67° C | 71% | 1239.7 hPa | 0 mm | - | 35 W/m² | - |
| 1777816312 | 11.67° C | 72% | 1239.7 hPa | 0 mm | - | 41 W/m² | - |
| 1777816010 | 11.11° C | 72% | 1239.7 hPa | 0 mm | - | 34 W/m² | - |
| 1777815707 | 11.11° C | 73% | 1239.7 hPa | 0 mm | - | 46 W/m² | - |
| 1777815404 | 10.56° C | 74% | 1239.7 hPa | 0 mm | - | 33 W/m² | - |
| 1777815101 | 10.56° C | 75% | 1239.7 hPa | 0 mm | - | 32 W/m² | - |
| 1777814797 | 10.56° C | 75% | 1239.7 hPa | 0 mm | - | 32 W/m² | - |
* Rain latest hour (hover to see other rain measurements)
** Current wind speed in m/s (hover to see current wind gust speed)